Location: ??
(35.5052°N, 139.7262°E)
Time: 17:57:37
(UTC+00:00)

DELTA 2 DEB (DPAF) - Pass Details

Date: 20 June 2021
Orbit: 639 x 645 km, 98.4° (Epoch: 29 July)

Event Time Altitude Azimuth Distance (km) Brightness Sun altitude
Exits shadow 17:24:18 34° 172° (S) 1,069 4.9 -19.8°
Maximum altitude 17:26:15 83° 257° (WSW) 653 4.0 -19.5°
Drops below altitude 10° 17:30:43 10° 346° (NNW) 2,044 7.2 -18.9°
Sets 17:32:55 0° 347° (NNW) 2,957 8.1 -18.6°
